Regional Weather Roundup
Issued by NWS Charleston, SC

Current Version | Previous Version | Graphics & Text | Print | Product List | Glossary On
Versions: 1 2 3 4 5 6 7 8 9 10 11 12 13 14 15 16 17 18 19 20 21 22 23 24 25 26 27 28 29 30 31 32 33 34 35 36 37 38 39 40 41 42 43 44 45 46 47 48 49 50
000
ASUS42 KCHS 171310
RWRCHS

REGIONAL WEATHER ROUNDUP
NATIONAL WEATHER SERVICE CHARLESTON SC
900 AM EDT WED SEP 17 2014

NOTE: "FAIR" INDICATES FEW OR NO CLOUDS BELOW 12,000 FEET WITH NO
SIGNIFICANT WEATHER AND/OR OBSTRUCTIONS TO VISIBILITY.

NOT ALL STATIONS ARE QUALITY CONTROLLED BY THE NATIONAL
WEATHER SERVICE. USE DATA WITH CAUTION...ESPECIALLY
DEWPOINT OBSERVATIONS.

SCZ027-030-031-034>040-042>050-171400-
...SOUTH CAROLINA...

CITY           SKY/WX    TMP DP  RH WIND       PRES   REMARKS
N CHARLESTON   MOSUNNY   76  70  82 CALM      29.92S
WATERFRONT PRK   N/A     75 N/A N/A S3          N/A
FORT JOHNSON   NOT AVBL
MOUNT PLEASANT NOT AVBL
JOHNS ISLAND   SUNNY     75  75 100 CALM      29.92S
PINOPOLIS        N/A     79  72  78 SW2       29.85R
MONCKS CORNER    N/A     73  73 100 CALM      29.92S
SUMMERVILLE    FAIR      73  72  94 CALM      29.93S
BEAUFORT MCAS  CLOUDY    74  71  91 NW3       29.93R
BEAUFORT ARPT  CLOUDY    75  75 100 NE6       29.93R FOG
HILTON HEAD IS NOT AVBL
GEORGETOWN     NOT AVBL
WALTERBORO     CLOUDY    72 N/A N/A CALM      29.94R
ORANGEBURG     CLOUDY    71  68  90 S3        29.94S
BARNWELL       CLOUDY    72  70  94 CALM      29.96R
AIKEN          CLOUDY    70  70 100 E3        29.99S
MANNING        FAIR      72  72 100 N3        29.94R
KINGSTREE      NOT AVBL
COLUMBIA       MOSUNNY   72  65  78 CALM      29.95R
SUMTER         PTSUNNY   68  64  88 N2        29.94R
FLORENCE       CLOUDY    67  65  93 NE6       29.95R FOG
MYRTLE BEACH   MOSUNNY   72  64  78 NE6       29.95R
N MYRTLE BEACH SUNNY     71  65  81 N6        29.95R

$$

GAZ063-065-086>088-099>101-113>116-118-119-134-136>141-150-171400-
...GEORGIA...

CITY           SKY/WX    TMP DP  RH WIND       PRES   REMARKS
SAVANNAH ARPT  MOSUNNY   75  70  84 CALM      29.93S
HUNTER AAF     SUNNY     75  71  87 N3        29.91S
FORT STEWART   SUNNY     74  70  87 N3        29.93R
STATESBORO     NOT AVBL
SYLVANIA       NOT AVBL
CLAXTON        CLOUDY   N/A N/A N/A CALM      29.95S
THOMSON        CLOUDY    72  72 100 CALM      30.00R
AUGUSTA-BUSH   MOSUNNY   70  68  93 E6        29.94F
AUGUSTA-DANIEL MOSUNNY   73  69  87 S3        29.96S
SWAINSBORO     FAIR      73  73 100 CALM      29.96R
VIDALIA        SUNNY     72  72 100 CALM      29.95S
ALMA           SUNNY     74  70  87 CALM      29.95R
WAYCROSS       PTSUNNY   76  74  96 W3        29.94F
JESUP          FAIR      75  72  88 CALM      29.94S
BRUNSWICK      MOSUNNY   73  70  88 CALM      29.95R
SAINT SIMONS   MOSUNNY   75  70  84 NW7       29.93R

$$

SCZ027-028-034-036>038-045-046-048>050-GAZ119-141-171400-
...LAKE AND SUPPLEMENTAL COASTAL OBSERVATIONS...

STATION/POSITION TIME  TEMP    WIND        PRES    WAVE   SWELL
                       AIR SEA DIR/SP/G            HT/PER HT/PER/DIR
                 (UTC) (F)     (DEG/KT/KT) (MB)    (FT/S) (FT/S/D)
UPR LAKE MARION  NOT AVBL
WINYAH BAY       1200   70     290/  7     1012.0S
LAKE MURRAY      1200   70     350/  1/  3 1013.9R
ACE BASIN NERRS  1200   71      50/  2     1013.0S
FORT PULASKI     1300   75     350/  5/  6 1013.5S
SAPELO ISLAND    1200   73     350/  3     1013.0S

$$

ANZ835-935-AMZ111-154-330-350-352-354-374-450-454-472-171400-
...C-MAN AND BUOY OBSERVATIONS...

STATION/POSITION TIME  TEMP    WIND        PRES    WAVE   SWELL
                       AIR SEA DIR/SP/G            HT/PER HT/PER/DIR
                 (UTC) (F)     (DEG/KT/KT) (MB)    (FT/S) (FT/S/D)
FOLLY BEACH CMAN 1200   74      70/  4/  5 1013.7S
BUOY 41004       1300   80 83   50/  4/  4 1012.5R   3/14   3/14
BUOY 41008       1300   79 84   10/  8/ 10 1013.2R   2/14   2/140/14
5E ST. MARYS GA  1300      83                N/A     2/13   2/120/13
FRYING PAN BUOY  NOT AVBL
BUOY 41025       1300   72      20/ 14/ 19 1013.4R   5/15   3/ 80/15
CAPE LOOKOUT NC  1200   76      90/ 10/ 11 1013.0S
BUOY 41002       1208   77 82  150/  6/  8 1012.9    6/13   5/100/13
BUOY 41010       1300   82 85  270/ 12/ 14 1013.2R   3/11   2/110/11
BUOY 41012       NOT AVBL
ST AUGUSTINE FL  1300   74     280/  4/  6 1014.1R
CAPERS NEARSHORE 1200   77      CALM  /  2   N/A
FRIPP NEARSHORE  NOT AVBL


$$



USA.gov is the U.S. government's official web portal to all federal, state and local government web resources and services.